Aeroporto :
LOGIN :

Iscrizione | Disclaimer

   EN    FR    IT 

 










Sommario :    VFR   VFR Marginale   IFR   IFR Intensivo   IFR Molto Intensivo
Visibilità : 
Base nubi : 
>= 8 km
>= 3000ft
5 / 8 km
1000 / 3000 ft
1500m / 5 km
500 / 1000 ft
800 / 1500m
200 / 500 ft
< 800m
< 200 ft
Simboli :   Temporali  Nebbia  Neve Forte  Precipitazioni Forti  Vento > 20 kt
SIGMETs :   Varie  Temporali  Ghiacco  Turbolenza  Onda orograficha  Ceneri Vulcaniche







- Altitudine del aeroporto : 46 ft
- Codice IATA : PAF


LPMT - Montijo Air Base

ULTIMO METAR :
  • 151600Z 27008KT 9999 VCSH FEW007 SCT016 18/17 Q1009

METARs OBSOLETI :
  • 151500Z 29008KT 270V330 9999 VCSH FEW016 SCT022 19/15 Q1008
  • 151400Z 29013KT 9999 VCSH SCT022 SCT045 20/15 Q1008

TAF AMD TAF LPMT
Valido dal 15 a 16 ore il 16 a 12 ore UTC


151622Z 1516/1612 26012KT 8000 SCT014 SCT020
TEMPO 1512/1518 2000 RADZ SCT009 BKN014
BECMG 1523/1601 36005KT
Nessun NOTAM noto per questo aeroporto.



MetMap, La meteo Aeronautica in un colpo d'occhio ! - Copyright ORBIFLY Dicembre 2007 - Disclaimer

ORBIFLY MET'MAP TEAM :

Programmazione e sviluppo : Alexandra Zaïnal
Concezione e sviluppo : Baudouin d'Aumeries
Co-Programmazione e sviluppo : Marc-Olivier Méhu
Supporto tecnico e logistico : Manuel Goepfert
Aiuto per la traduzione : Arnaldo La Scala

Contatto : metmap@orbifly.com




FONTI E CREDITI :

   NOAA